Weather History for Mobridge, SD

Change the Weather History Date:

Friday, July 12, 2013

  Actual Average Record
Temperature  
Mean Temperature 79 °F 73 °F  
Max Temperature 87 °F 86 °F 104 °F (1936)
Min Temperature 70 °F 60 °F 46 °F (1950)
Degree Days  
Heating Degree Days 0 0  
Month to date heating degree days 0 5  
Since 1 June heating degree days 68 80  
Since 1 July heating degree days 0 5  
Cooling Degree Days 14 8  
Month to date cooling degree days 92 86  
Year to date cooling degree days 218 201  
Since 1 June cooling degree days 203 185  
Growing Degree Days 30 (Base 50)    
Moisture  
Dew Point 68 °F    
Average Humidity 74    
Maximum Humidity 97    
Minimum Humidity 51    
Precipitation  
Precipitation 0.00 in 0.09 in 1.35 in (1927)
Month to date precipitation 0.93 1.03  
Year to date precipitation 9.93 10.21  
Sea Level Pressure  
Sea Level Pressure 29.70 in    
Wind  
Wind Speed 11 mph (East)    
Max Wind Speed 21 mph    
Max Gust Speed 25 mph    
Visibility 10 miles    
Events      
T = Trace of Precipitation, MM = Missing Value Source: NWS Daily Summary

Daily Weather History Graph

Daily Weather History Graph

Search for Another Location

Airport:

Trip Planner

Search our weather history database for the weather conditions in past years. The results will help you decide how hot, cold, wet, or windy it might be!

Date:

Astronomy

Jul. 12, 2013 Rise Set
Actual Time 6:04 AM CDT 9:29 PM CDT
Civil Twilight 5:28 AM CDT 10:05 PM CDT
Nautical Twilight 4:39 AM CDT 10:54 PM CDT
Astronomical Twilight 3:37 AM CDT 11:55 PM CDT
Moon 10:39 AM CDT (7/12) 11:23 PM CDT (7/12)
Length of Visible Light 16h 37m
Length of Day
15h 24m
Waxing Crescent, 17% of the Moon is Illuminated
Jul 12
Waxing Crescent
Jul 15
First Quarter
Jul 22
Full
Jul 29
Last Quarter
Aug 6
New

Hourly Weather History & Observations

Time (CDT) Temp. Heat Index Dew Point Humidity Pressure Visibility Wind Dir Wind Speed Gust Speed Precip Events Conditions
12:52 AM 80.1 °F 82.7 °F 68.0 °F 67% 29.65 in 10.0 mi SSE 16.1 mph 23.0 mph N/A   Clear
1:52 AM 79.0 °F - 69.1 °F 72% 29.66 in 10.0 mi SSE 12.7 mph 19.6 mph N/A   Clear
2:52 AM 78.1 °F - 69.1 °F 74% 29.67 in 10.0 mi SSE 15.0 mph - N/A   Clear
3:52 AM 75.0 °F - 69.1 °F 82% 29.65 in 10.0 mi SSE 12.7 mph - N/A   Clear
4:52 AM 75.0 °F - 66.9 °F 76% 29.63 in 10.0 mi SSE 16.1 mph - N/A   Clear
5:52 AM 73.9 °F - 66.9 °F 79% 29.63 in 10.0 mi SSE 17.3 mph - N/A   Clear
6:52 AM 73.9 °F - 66.9 °F 79% 29.64 in 10.0 mi SE 12.7 mph - N/A   Clear
7:52 AM 75.0 °F - 66.9 °F 76% 29.63 in 10.0 mi SSE 17.3 mph - N/A   Clear
8:11 AM 75.2 °F - 66.2 °F 73% 29.68 in 10.0 mi SSE 13.8 mph - N/A   Partly Cloudy
8:52 AM 77.0 °F - 66.9 °F 71% 29.63 in 10.0 mi SSE 16.1 mph - N/A   Clear
9:52 AM 79.0 °F - 66.9 °F 66% 29.64 in 10.0 mi South 12.7 mph - N/A   Clear
10:52 AM 82.0 °F 84.9 °F 68.0 °F 62% 29.65 in 10.0 mi SSW 10.4 mph - N/A   Clear
11:52 AM 82.9 °F 86.5 °F 69.1 °F 63% 29.66 in 10.0 mi West 8.1 mph - N/A   Clear
12:52 PM 84.0 °F 88.4 °F 70.0 °F 63% 29.68 in 10.0 mi NW 11.5 mph - N/A   Clear
1:52 PM 84.0 °F 88.4 °F 70.0 °F 63% 29.69 in 10.0 mi North 12.7 mph - N/A   Clear
2:52 PM 84.0 °F 88.4 °F 70.0 °F 63% 29.71 in 10.0 mi North 13.8 mph 21.9 mph N/A   Clear
3:52 PM 86.0 °F 88.8 °F 66.9 °F 53% 29.73 in 10.0 mi North 16.1 mph 24.2 mph N/A   Clear
4:52 PM 86.0 °F 89.4 °F 68.0 °F 55% 29.74 in 10.0 mi NNW 15.0 mph 20.7 mph N/A   Clear
5:52 PM 86.0 °F 88.8 °F 66.9 °F 53% 29.76 in 10.0 mi North 10.4 mph - N/A   Clear
6:52 PM 86.0 °F 88.2 °F 66.0 °F 51% 29.76 in 10.0 mi NNE 8.1 mph - N/A   Clear
7:52 PM 84.0 °F 87.0 °F 68.0 °F 58% 29.77 in 10.0 mi North 8.1 mph - N/A   Clear
8:52 PM 77.0 °F - 69.1 °F 76% 29.79 in 10.0 mi North 4.6 mph - N/A   Clear
9:52 PM 73.0 °F - 68.0 °F 84% 29.81 in 10.0 mi North 5.8 mph - N/A   Clear
10:52 PM 73.0 °F - 68.0 °F 84% 29.82 in 10.0 mi NNW 4.6 mph - N/A   Clear
11:52 PM 70.0 °F - 68.0 °F 93% 29.84 in 10.0 mi North 3.5 mph - N/A   Clear